Abilene Dyess, TX

11:23 AM CDT on October 21, 2017 (GMT -0500)
Dyess Air Force Base

Weather History for KDYS - March, 2014

Change the Weather History Date:

Sunday, March 2, 2014

  Actual Average Record
Temperature  
Mean Temperature 26 °F -  
Max Temperature 37 °F 60 °F 80 °F (2016)
Min Temperature 15 °F 39 °F 15 °F (2014)
Degree Days  
Heating Degree Days 39    
Moisture  
Dew Point 21 °F    
Average Humidity 88    
Maximum Humidity 100    
Minimum Humidity 73    
Precipitation  
Precipitation 0.00 in - - ()
Sea Level Pressure  
Sea Level Pressure 30.20 in    
Wind  
Wind Speed 15 mph (North)    
Max Wind Speed 20 mph    
Max Gust Speed 23 mph    
Visibility 5 miles    
Events Rain , Snow    
Averages and records for this station are not official NWS values.
T = Trace of Precipitation, MM = Missing Value Source: NWS Daily Summary

Daily Weather History Graph

Daily Weather History Graph

Search for Another Location

Airport or City:

Trip Planner

Search our weather history database for the weather conditions in past years. The results will help you decide how hot, cold, wet, or windy it might be!

Date:

Astronomy

Mar. 02, 2014 Rise Set
Actual Time 7:05 AM CST 6:37 PM CST
Civil Twilight 6:41 AM CST 7:02 PM CST
Nautical Twilight 6:12 AM CST 7:30 PM CST
Astronomical Twilight 5:44 AM CST 7:59 PM CST
Moon 7:45 AM CST (3/2) 8:26 PM CST (3/2)
Length of Visible Light 12h 21m
Length of Day
11h 32m
Waxing Crescent, 3% of the Moon is Illuminated
Mar 2
Waxing Crescent
Mar 8
First Quarter
Mar 16
Full
Mar 23
Last Quarter
Mar 30
New

Hourly Weather History & Observations

Time (CST) Temp. Windchill Dew Point Humidity Pressure Visibility Wind Dir Wind Speed Gust Speed Precip Events Conditions
12:03 AM 37.4 °F 27.8 °F 35.6 °F 93% 30.04 in 2.5 mi NNE 17.3 mph - N/A   Clear
12:08 AM 35.6 °F 26.2 °F 33.8 °F 93% 30.04 in 2.0 mi NNE 15.0 mph 21.9 mph N/A   Clear
12:13 AM 35.6 °F 26.6 °F 33.8 °F 93% 30.04 in 1.8 mi NNE 13.8 mph - N/A   Clear
12:18 AM 35.6 °F 25.9 °F 33.8 °F 93% 30.05 in 2.0 mi North 16.1 mph - N/A   Clear
12:23 AM 35.6 °F 27.1 °F 32.0 °F 87% 30.05 in 1.8 mi North 12.7 mph - N/A   Clear
12:28 AM 35.6 °F 25.9 °F 32.0 °F 87% 30.05 in 2.0 mi North 16.1 mph - N/A   Clear
12:33 AM 33.8 °F 22.8 °F 32.0 °F 93% 30.04 in 2.5 mi North 18.4 mph 23.0 mph N/A   Clear
12:38 AM 33.8 °F 22.8 °F 32.0 °F 93% 30.05 in 3.0 mi North 18.4 mph 23.0 mph N/A   Clear
12:43 AM 33.8 °F 23.2 °F 32.0 °F 93% 30.05 in 2.5 mi North 17.3 mph 23.0 mph N/A   Clear
12:48 AM 33.8 °F 23.9 °F 32.0 °F 93% 30.05 in 2.0 mi North 15.0 mph - N/A   Clear
12:58 AM 33.8 °F 22.5 °F 32.9 °F 96% 30.02 in 2.0 mi NNE 19.6 mph - N/A   Clear
1:18 AM 32.0 °F 20.5 °F 32.0 °F 100% 30.06 in 2.5 mi NNE 18.4 mph - N/A   Clear
1:28 AM 32.0 °F 21.2 °F 32.0 °F 100% 30.07 in 3.0 mi NNE 16.1 mph - N/A   Clear
1:30 AM 32.0 °F 21.2 °F 32.0 °F 100% 30.07 in 3.0 mi NNE 16.1 mph - N/A   Overcast
1:42 AM 32.0 °F 20.8 °F 32.0 °F 100% 30.07 in 3.0 mi North 17.3 mph 21.9 mph N/A   Overcast
1:53 AM 32.0 °F 20.8 °F 30.2 °F 93% 30.07 in 2.0 mi North 17.3 mph 23.0 mph N/A   Light Freezing Drizzle
1:58 AM 30.7 °F 19.6 °F 29.7 °F 96% 30.04 in 3.0 mi North 16.1 mph - N/A   Light Freezing Drizzle
2:58 AM 27.7 °F 14.8 °F 26.4 °F 95% 30.04 in 3.0 mi North 18.4 mph - N/A   Light Freezing Drizzle
3:58 AM 25.9 °F 13.8 °F 24.8 °F 96% 30.06 in 4.0 mi North 15.0 mph - N/A   Light Freezing Drizzle
4:58 AM 25.5 °F 13.3 °F 24.6 °F 96% 30.09 in 2.0 mi North 15.0 mph - N/A   Light Freezing Drizzle
5:39 AM 24.8 °F 13.4 °F 24.8 °F 100% 30.12 in 3.0 mi NNE 12.7 mph - N/A   Light Freezing Drizzle
5:58 AM 24.8 °F 14.6 °F 23.0 °F 93% 30.11 in 2.0 mi North 10.4 mph - N/A   Light Freezing Drizzle
6:58 AM 23.4 °F 11.6 °F 22.1 °F 95% 30.13 in 3.0 mi North 12.7 mph - N/A   Light Freezing Drizzle
7:10 AM 23.0 °F 11.7 °F 21.2 °F 93% 30.13 in 4.0 mi NNE 11.5 mph - N/A   Overcast
7:26 AM 23.0 °F 10.1 °F 21.2 °F 93% 30.15 in 4.0 mi North 15.0 mph - N/A   Light Freezing Drizzle
7:58 AM 21.7 °F 9.6 °F 20.1 °F 93% 30.16 in 2.0 mi NNE 12.7 mph - N/A   Light Freezing Drizzle
8:27 AM 21.2 °F 8.9 °F 19.4 °F 93% 30.16 in 2.0 mi NNE 12.7 mph - N/A   Light Freezing Drizzle
8:44 AM 21.2 °F 8.3 °F 19.4 °F 93% 30.16 in 3.0 mi North 13.8 mph - N/A   Light Freezing Drizzle
8:58 AM 20.1 °F 7.5 °F 18.3 °F 93% 30.19 in 3.0 mi NNE 12.7 mph - N/A   Light Freezing Drizzle
9:32 AM 19.4 °F 6.6 °F 17.6 °F 93% 30.18 in 4.0 mi North 12.7 mph - N/A Snow Light Snow
9:45 AM 19.4 °F 5.5 °F 15.8 °F 86% 30.19 in 3.0 mi North 15.0 mph - N/A   Overcast
9:58 AM 18.1 °F 3.9 °F 16.3 °F 93% 30.22 in 3.0 mi North 15.0 mph - N/A   Overcast
10:16 AM 17.6 °F 3.7 °F 15.8 °F 93% 30.19 in 5.0 mi North 13.8 mph - N/A Snow Light Snow
10:58 AM 18.1 °F 3.9 °F 16.0 °F 91% 30.25 in 6.0 mi North 15.0 mph - N/A Snow Light Snow
11:58 AM 17.8 °F 2.9 °F 15.4 °F 91% 30.29 in 5.0 mi North 16.1 mph - 0.00 in Snow Light Snow
12:07 PM 17.6 °F 4.3 °F 15.8 °F 93% 30.23 in 2.0 mi North 12.7 mph - N/A Snow Light Snow
12:15 PM 17.6 °F 2.7 °F 14.0 °F 86% 30.24 in 3.0 mi North 16.1 mph - N/A Snow Light Snow
12:35 PM 17.6 °F 2.2 °F 15.8 °F 93% 30.24 in 0.8 mi North 17.3 mph - N/A Snow Light Snow
12:54 PM 17.6 °F 3.7 °F 14.0 °F 86% 30.24 in 1.8 mi North 13.8 mph - N/A Snow Light Snow
12:58 PM 17.4 °F 2.9 °F 14.4 °F 88% 30.32 in 1.5 mi North 15.0 mph - 0.00 in Snow Light Snow
1:02 PM 17.6 °F 3.2 °F 14.0 °F 86% 30.24 in 2.0 mi North 15.0 mph - N/A Snow Light Snow
1:58 PM 18.9 °F 5.3 °F 15.1 °F 85% 30.31 in 3.0 mi North 13.8 mph - N/A Snow Light Snow
2:40 PM 19.4 °F 10.4 °F 15.8 °F 86% 30.18 in 10.0 mi NNE 6.9 mph - N/A   Mostly Cloudy
2:58 PM 21.0 °F 12.4 °F 18.0 °F 88% 30.23 in 10.0 mi NNE 6.9 mph - N/A   Mostly Cloudy
3:58 PM 23.0 °F 14.7 °F 19.0 °F 85% 30.22 in 10.0 mi NE 6.9 mph - N/A   Overcast
4:58 PM 21.7 °F 9.6 °F 17.8 °F 85% 30.28 in 10.0 mi North 12.7 mph - N/A   Overcast
5:58 PM 20.7 °F 7.6 °F 16.2 °F 83% 30.31 in 10.0 mi NNE 13.8 mph - N/A   Overcast
6:58 PM 20.3 °F 9.0 °F 15.1 °F 80% 30.35 in 10.0 mi NNE 10.4 mph - N/A   Mostly Cloudy
7:13 PM 19.4 °F 6.6 °F 14.0 °F 80% 30.26 in 10.0 mi NNE 12.7 mph - N/A   Mostly Cloudy
7:58 PM 19.0 °F 5.6 °F 12.0 °F 74% 30.38 in 10.0 mi North 13.8 mph - N/A   Overcast
8:58 PM 17.6 °F 3.2 °F 10.8 °F 75% 30.42 in 10.0 mi NNE 15.0 mph - N/A   Overcast
9:58 PM 16.9 °F 4.8 °F 11.3 °F 79% 30.45 in 9.0 mi North 10.4 mph - N/A   Mostly Cloudy
10:03 PM 17.6 °F 2.7 °F 10.4 °F 73% 30.34 in 9.0 mi North 16.1 mph - N/A   Mostly Cloudy
10:08 PM 17.6 °F 3.7 °F 10.4 °F 73% 30.34 in 9.0 mi NNE 13.8 mph - N/A   Scattered Clouds
10:23 PM 15.8 °F 0.3 °F 10.4 °F 79% 30.35 in 10.0 mi North 16.1 mph - N/A   Mostly Cloudy
10:38 PM 15.8 °F 0.3 °F 8.6 °F 73% 30.36 in 10.0 mi NNE 16.1 mph - N/A   Mostly Cloudy
10:58 PM 16.3 °F 2.1 °F 9.3 °F 74% 30.48 in 10.0 mi North 13.8 mph - N/A   Mostly Cloudy
10:59 PM 15.8 °F 2.1 °F 8.6 °F 73% 30.36 in 10.0 mi North 12.7 mph - N/A Rain Light Freezing Rain
11:00 PM 15.8 °F 2.1 °F 10.4 °F 79% 30.36 in 10.0 mi North 12.7 mph - N/A   Scattered Clouds
11:20 PM 15.8 °F 0.9 °F 8.6 °F 73% 30.36 in 10.0 mi North 15.0 mph - N/A   Mostly Cloudy
11:58 PM 16.2 °F 0.8 °F 9.0 °F 73% 30.49 in 10.0 mi North 16.1 mph - 0.00 in Snow Light Snow